Vertical_Velocity
-2 -1 2 -1 -1 -0 2 -8 1 -5 -1 -8 -3 -1 -4 0 1 -3 -1 -2 0 -2 -2 1 -1 1 -0 -1 1 -1 0 -1 -3 -2 -1 -2 1 0 0 -1 -1 2 2 3
-4 -1 1 1 -1 0 -0 -1 3 3 -14 -0 -7 -0 -0 -1 -0 -3 -3 1 0 -1 -1 -0 -2 -1 -0 -2 -1 -2 -1 -2 -3 -3 -3 -2 -2 -2 -1 2 2 1 1 2
-4 0 -0 0 -8 -3 -1 0 -7 1 -28 -1 -4 -1 -3 -3 1 -2 -1 -1 -1 -1 -3 -3 -3 -3 -3 -4 -2 -0 -0 1 0 1 0 -2 -4 -4 -4 -4 -2 -2 -2 1
-1 -3 -2 -16 -1 -2 -5 -3 0 2 -2 -1 -3 -2 -2 -0 -1 -1 1 -1 -2 -3 -0 0 -1 -2 -1 -0 -3 -2 0 -0 -1 -2 -1 -0 0 1 1 1 -2 -2 -2 -1
1 -0 -13 -7 -0 -4 -6 -10 -3 -3 -2 -3 -1 1 -13 -1 -1 -3 -1 -0 -1 -2 -1 -1 -2 -2 -2 -1 0 -1 -1 -1 -0 -1 -3 -2 0 0 -0 0 0 -1 -0 -2
1 2 -1 -7 -0 -0 -2 -9 -1 -1 -1 -0 0 -2 -6 -2 -3 -1 -2 -2 -1 -0 -1 -2 -3 -2 -1 -0 -1 -1 -0 -0 -1 -2 -1 -0 -1 -1 -1 0 0 -1 0 1
-1 0 -11 -6 -3 2 -5 -24 -1 -1 -1 -1 -2 -9 -2 -1 -1 -1 -1 -0 -0 -1 -2 -1 -0 -2 -3 -1 -1 -1 -1 -0 -1 -3 -3 -3 -3 -4 -3 -3 -3 -3 -4 -4
4 4 -12 -1 0 -8 -15 -0 -1 -1 -2 -3 -2 -1 -1 0 -2 -1 -1 -1 -0 -2 -1 2 -1 -2 -0 -1 -1 -0 -1 -3 -2 1 2 2 2 2 1 0 -0 -0 1 1
-11 -20 -5 -5 -2 -1 1 -0 -3 -1 -0 0 1 -3 2 -2 2 2 1 2 2 -0 1 0 -1 -2 -3 5 1 -1 -0 1 0 -0 -0 0 0 -1 -3 -4 -4 -3 -2 -2
0 -9 -8 -7 -5 -2 2 -3 1 1 0 2 -1 0 -4 -3 -3 -2 -0 -2 4 2 -2 -2 3 -1 1 3 -3 -3 -3 -2 -1 -0 -0 -2 -2 -2 -1 -1 -1 -1 -1 -1
-6 -7 0 -7 -6 -3 -3 4 0 1 -2 -1 -1 -2 2 -2 -1 -0 -1 -1 1 -1 -3 -5 3 -1 2 -1 -1 -1 0 1 0 -1 -1 -1 -1 -1 -1 -1 -1 -2 -2 -1
-13 -6 -1 -5 0 2 -3 -3 0 2 -2 -0 -0 -1 -1 -3 -1 -2 -0 2 -1 0 -1 -2 1 -2 1 -1 0 3 -2 -1 -1 -1 -3 -4 -2 0 1 0 1 2 3 1
-32 8 1 2 1 0 -2 -1 1 -1 0 -2 0 -1 2 -4 -0 0 -0 1 2 3 3 1 -0 -1 3 6 4 -2 -3 2 2 -1 -0 0 1 1 1 0 -1 -0 -0 -0
2 13 -4 0 -14 -2 1 1 -0 1 1 1 0 -1 -1 -3 -1 -1 -2 1 -2 -2 -4 -1 0 -3 5 5 1 0 1 2 -0 1 -1 -0 1 1 -0 -1 -1 1 -0 0
-5 0 -4 13 3 -2 0 2 -0 -2 -2 -1 -1 0 0 0 -0 -1 -1 -2 -3 -2 2 3 2 -3 2 1 -1 1 2 1 3 4 2 1 0 -1 0 -0 -1 1 0 -1
3 4 -0 -3 1 5 3 -2 -3 -1 0 1 3 1 1 2 3 1 -1 0 1 -2 -5 -8 -4 2 -2 -3 -0 -0 -1 -1 -2 -2 1 1 2 0 1 1 0 0 -0 0
4 -7 -4 -4 2 -0 -4 3 1 -2 -4 -2 -1 1 -0 -1 0 1 5 6 2 1 -1 0 -4 -5 -5 -3 -2 -1 1 1 3 0 -2 -1 1 0 -0 1 -2 -1 -0 3
3 0 4 5 -2 0 -1 -0 -2 1 2 -1 -4 1 1 2 1 -2 -4 -4 -0 4 -0 -1 1 -1 -0 1 1 0 -0 2 2 2 4 2 1 2 2 2 0 -2 -1 2
5 1 -3 3 -0 2 4 -0 0 1 -1 2 -3 -7 -2 1 2 4 3 -0 -0 -3 4 4 2 3 -1 -2 -2 1 2 2 1 2 3 3 1 1 1 2 1 1 2 1
-0 2 3 3 1 2 1 4 2 -0 5 3 3 3 -0 -3 -2 -2 1 1 3 -0 -3 -1 1 3 5 2 -1 -3 -3 0 1 -0 2 2 -1 -0 2 -0 -0 1 1 0
1 1 3 3 2 3 3 1 2 -1 -2 -2 2 4 1 1 2 -0 -5 -6 6 1 -1 2 -0 -1 -4 -3 -1 -0 -1 -2 -1 2 -0 -0 -1 0 -2 -1 0 3 1 0
-3 -1 1 2 2 2 2 1 -2 -3 -3 2 -4 -0 -4 -1 -3 -5 6 -3 -5 -1 -1 1 0 1 -1 1 3 1 1 0 -1 -1 2 0 -0 -1 -1 -0 1 2 3 0
0 -3 0 2 1 1 -1 0 0 -1 1 -4 -4 2 -2 -2 0 -1 -3 3 -2 -0 -1 -2 -1 -3 1 2 1 -1 1 0 -1 -3 -1 -1 1 1 3 2 1 2 2 -1
-2 -1 5 5 -1 -0 -4 -1 -1 -0 -0 2 -1 1 -3 -6 -2 3 2 -1 -2 -0 -0 -3 2 0 0 -1 0 -0 -0 3 2 -2 -2 -0 -0 0 -1 -1 -2 3 1 0
2 -3 -4 3 1 -3 0 0 -3 3 2 5 -2 1 -0 3 -2 0 -2 1 -4 1 -3 -2 -4 3 -1 -1 -1 2 -4 -2 1 -0 -4 2 1 -0 -2 2 -7 1 1 0
-2 -4 7 6 1 3 2 3 -2 -3 -3 -8 -9 -5 2 -3 0 -2 -2 4 -6 0 -2 2 -0 3 4 3 -3 -2 -2 -1 2 -0 -2 -2 3 1 1 -0 -7 0 -1 -2
-7 5 -2 -0 5 3 1 4 4 -4 -1 -2 -3 -1 1 0 -3 -1 0 1 0 2 0 6 -5 -0 3 -1 -1 -1 -2 2 0 2 -1 1 3 0 0 -4 -3 0 1 -2
Height
1546 1542 1541 1538 1536 1538 1539 1531 1531 1512 1515 1494 1492 1493 1488 1484 1483 1482 1480 1480 1477 1476 1473 1470 1467 1463 1459 1454 1449 1445 1442 1440 1438 1436 1434 1432 1430 1429 1428 1428 1427 1427 1427 1427
1541 1533 1534 1532 1525 1523 1522 1520 1519 1512 1503 1490 1485 1486 1483 1481 1480 1480 1478 1477 1475 1474 1472 1469 1466 1463 1459 1456 1452 1448 1445 1442 1440 1438 1435 1432 1430 1429 1428 1426 1425 1425 1424 1424
1540 1533 1531 1523 1503 1503 1506 1506 1505 1511 1485 1483 1481 1481 1480 1477 1477 1476 1476 1475 1474 1472 1470 1468 1465 1462 1459 1456 1453 1450 1446 1443 1440 1437 1434 1432 1430 1429 1428 1427 1425 1424 1423 1422
1536 1537 1526 1494 1491 1492 1496 1492 1491 1485 1479 1479 1477 1475 1475 1474 1472 1472 1472 1472 1471 1470 1468 1466 1464 1461 1458 1456 1454 1451 1448 1445 1442 1439 1435 1433 1431 1429 1427 1426 1425 1424 1422 1421
1547 1547 1517 1486 1485 1490 1492 1482 1475 1478 1476 1475 1474 1473 1466 1466 1467 1467 1467 1468 1468 1467 1466 1464 1463 1461 1458 1456 1453 1451 1449 1447 1444 1441 1438 1436 1433 1431 1429 1427 1424 1422 1420 1419
1544 1545 1523 1486 1482 1482 1484 1489 1470 1472 1473 1473 1472 1476 1468 1465 1465 1464 1464 1464 1465 1464 1463 1462 1461 1459 1457 1455 1453 1451 1449 1446 1444 1442 1440 1438 1436 1433 1431 1429 1427 1424 1422 1420
1536 1533 1513 1484 1483 1483 1487 1481 1466 1467 1468 1469 1471 1468 1465 1464 1464 1463 1462 1462 1461 1460 1460 1459 1458 1457 1456 1454 1452 1450 1448 1445 1443 1441 1439 1437 1436 1434 1432 1430 1429 1427 1425 1423
1528 1530 1523 1473 1481 1485 1468 1463 1463 1464 1465 1464 1463 1463 1462 1461 1460 1460 1459 1458 1458 1456 1456 1456 1455 1453 1452 1451 1449 1447 1446 1444 1442 1439 1437 1436 1434 1433 1431 1430 1428 1427 1425 1423
1508 1490 1468 1466 1460 1460 1460 1460 1461 1461 1461 1461 1459 1458 1458 1456 1455 1455 1454 1454 1453 1452 1451 1451 1450 1449 1448 1448 1446 1445 1444 1442 1440 1438 1436 1435 1433 1431 1430 1429 1427 1426 1424 1422
1492 1458 1461 1462 1459 1457 1457 1455 1455 1455 1456 1455 1453 1452 1451 1451 1451 1450 1450 1450 1449 1448 1446 1446 1446 1445 1444 1444 1443 1442 1440 1439 1437 1436 1434 1432 1430 1429 1428 1426 1425 1423 1422 1421
1479 1456 1457 1452 1449 1450 1450 1449 1448 1448 1449 1449 1448 1447 1446 1444 1444 1443 1443 1443 1443 1442 1441 1440 1441 1440 1439 1439 1438 1436 1435 1434 1433 1432 1430 1428 1427 1426 1425 1424 1422 1421 1419 1418
1455 1445 1445 1441 1443 1444 1444 1443 1443 1443 1443 1443 1442 1440 1438 1437 1437 1436 1435 1435 1434 1434 1434 1434 1434 1434 1434 1433 1432 1431 1430 1430 1429 1427 1426 1425 1423 1421 1421 1419 1419 1418 1417 1417
1443 1443 1442 1441 1441 1440 1440 1440 1440 1440 1439 1436 1435 1433 1431 1428 1428 1427 1427 1428 1428 1428 1428 1427 1428 1428 1429 1428 1426 1425 1424 1423 1422 1421 1420 1419 1418 1417 1417 1415 1414 1413 1412 1412
1438 1440 1435 1434 1433 1434 1434 1435 1434 1434 1432 1429 1426 1423 1421 1419 1419 1420 1420 1421 1420 1420 1420 1421 1421 1422 1424 1423 1421 1420 1418 1418 1417 1416 1415 1414 1413 1412 1412 1411 1410 1409 1408 1408
1428 1431 1426 1428 1428 1428 1429 1429 1427 1427 1426 1424 1421 1418 1415 1413 1413 1413 1413 1412 1413 1413 1414 1414 1414 1415 1417 1416 1414 1413 1412 1412 1412 1411 1410 1409 1408 1407 1405 1404 1403 1403 1403 1402
1424 1423 1421 1420 1420 1420 1422 1422 1422 1422 1421 1420 1418 1416 1414 1413 1412 1410 1409 1408 1407 1406 1406 1406 1406 1407 1407 1407 1406 1405 1405 1405 1405 1404 1402 1401 1400 1399 1399 1398 1397 1396 1396 1396
1417 1414 1415 1412 1411 1412 1413 1415 1415 1416 1418 1418 1417 1415 1412 1411 1410 1409 1407 1405 1403 1401 1400 1399 1397 1398 1397 1397 1396 1396 1394 1394 1393 1393 1392 1392 1392 1391 1391 1390 1389 1389 1389 1390
1403 1402 1405 1406 1407 1407 1409 1411 1412 1413 1412 1411 1413 1414 1412 1409 1406 1405 1404 1403 1401 1398 1396 1394 1393 1392 1392 1391 1389 1387 1386 1385 1384 1383 1383 1382 1381 1381 1381 1381 1380 1381 1382 1383
1395 1393 1397 1402 1403 1405 1406 1408 1410 1410 1410 1409 1406 1408 1409 1407 1405 1403 1400 1397 1395 1394 1394 1390 1388 1385 1384 1384 1383 1382 1380 1379 1378 1377 1376 1374 1373 1372 1373 1373 1373 1373 1373 1374
1389 1390 1393 1400 1402 1405 1407 1407 1405 1408 1408 1406 1403 1402 1401 1402 1400 1399 1398 1396 1393 1389 1388 1386 1383 1380 1378 1376 1375 1374 1374 1373 1371 1370 1369 1368 1366 1366 1366 1365 1365 1365 1365 1365
1388 1391 1395 1399 1403 1404 1405 1405 1406 1405 1406 1405 1404 1402 1400 1399 1396 1395 1393 1394 1392 1387 1384 1381 1378 1375 1372 1370 1368 1367 1365 1364 1364 1363 1361 1360 1359 1359 1359 1359 1359 1358 1356 1357
1393 1395 1399 1401 1404 1405 1404 1404 1404 1404 1403 1401 1399 1400 1397 1396 1394 1392 1390 1385 1386 1383 1380 1377 1373 1369 1365 1362 1359 1358 1356 1354 1353 1353 1353 1352 1352 1352 1352 1352 1351 1351 1350 1350
1395 1398 1400 1401 1403 1403 1404 1404 1402 1401 1399 1398 1396 1395 1391 1390 1389 1386 1383 1381 1378 1377 1373 1370 1366 1362 1358 1355 1352 1351 1348 1346 1344 1344 1345 1346 1345 1345 1345 1345 1345 1344 1343 1344
1397 1397 1397 1395 1398 1399 1398 1399 1398 1396 1394 1391 1390 1387 1386 1383 1382 1381 1378 1374 1373 1370 1366 1363 1359 1354 1351 1349 1347 1344 1342 1341 1338 1337 1340 1340 1339 1339 1340 1341 1341 1341 1339 1340
1397 1396 1396 1394 1393 1391 1391 1390 1389 1388 1387 1384 1381 1381 1379 1377 1374 1371 1371 1367 1366 1363 1360 1357 1355 1351 1346 1344 1341 1340 1338 1337 1336 1334 1335 1335 1333 1333 1332 1333 1335 1339 1337 1338
1391 1390 1389 1388 1386 1386 1385 1382 1379 1379 1377 1375 1375 1374 1372 1369 1365 1362 1361 1360 1358 1357 1354 1351 1348 1346 1342 1338 1336 1336 1335 1335 1334 1332 1331 1333 1330 1329 1328 1328 1331 1333 1333 1336
1384 1380 1378 1378 1378 1378 1377 1375 1372 1369 1368 1367 1364 1363 1361 1358 1356 1354 1353 1352 1350 1349 1346 1344 1342 1341 1337 1333 1330 1330 1330 1330 1330 1329 1328 1330 1328 1326 1326 1326 1328 1330 1331 1333